Manchester, United Kingdom

1:51 AM GMT on February 11, 2016 (GMT +0000)
Manchester

Weather History for EGCC - July, 2013

Change the Weather History Date:

Friday, July 26, 2013

  Actual Average (WUND) Record (WUND)
Temperature  
Mean Temperature 64 °F -  
Max Temperature 75 °F 67 °F - (-1)
Min Temperature 53 °F 53 °F - (-1)
Degree Days  
Heating Degree Days 1    
Growing Degree Days 14 (Base 50)    
Moisture  
Dew Point 53 °F    
Average Humidity 64    
Maximum Humidity 94    
Minimum Humidity 38    
Precipitation  
Precipitation 0.00 in 0.10 in - ()
Sea Level Pressure  
Sea Level Pressure 29.88 in    
Wind  
Wind Speed 4 mph ()    
Max Wind Speed 8 mph    
Max Gust Speed 20 mph    
Visibility 6.2 miles    
Events      
Averages and records for this station are not official NWS values.
T = Trace of Precipitation, MM = Missing Value Source: Averaged Metar Reports

Daily Weather History Graph

Daily Weather History Graph

Search for Another Location

Airport or City:

Trip Planner

Search our weather history database for the weather conditions in past years. The results will help you decide how hot, cold, wet, or windy it might be!

Date:

Astronomy

Jul. 26, 2013 Rise Set
Actual Time 5:15 AM BST 9:14 PM BST
Civil Twilight 4:30 AM BST 9:59 PM BST
Nautical Twilight 3:25 AM BST 11:03 PM BST
Astronomical Twilight 1:48 AM BST 12:43 AM BST
Moon 10:28 PM BST (7/26) 10:23 AM BST (7/26)
Length of Visible Light 17h 28m
Length of Day
15h 58m
Waning Gibbous, 82% of the Moon is Illuminated
Jul 26
Waning Gibbous
Jul 29
Last Quarter
Aug 6
New
Aug 14
First Quarter
Aug 21
Full

Hourly Weather History & Observations

Time (BST) Temp. Dew Point Humidity Pressure Visibility Wind Dir Wind Speed Gust Speed Precip Events Conditions
12:20 AM 60.8 °F 51.8 °F 72% 29.89 in 6.2 mi West 4.6 mph - N/A   Partly Cloudy
12:50 AM 60.8 °F 51.8 °F 72% 29.89 in 6.2 mi Variable 2.3 mph - N/A   Partly Cloudy
1:20 AM 59.0 °F 53.6 °F 82% 29.89 in 6.2 mi SSE 2.3 mph - N/A   Mostly Cloudy
1:50 AM 59.0 °F 53.6 °F 82% 29.89 in 6.2 mi SSE 3.5 mph - N/A   Mostly Cloudy
2:20 AM 60.8 °F 53.6 °F 77% 29.89 in 6.2 mi South 3.5 mph - N/A   Mostly Cloudy
2:50 AM 59.0 °F 53.6 °F 82% 29.89 in 6.2 mi SE 3.5 mph - N/A   Partly Cloudy
3:20 AM 59.0 °F 53.6 °F 82% 29.89 in 6.2 mi Calm Calm - N/A   Partly Cloudy
3:50 AM 57.2 °F 53.6 °F 88% 29.89 in 6.2 mi SSE 3.5 mph - N/A   Mostly Cloudy
4:20 AM 57.2 °F 53.6 °F 88% 29.89 in 6.2 mi Calm Calm - N/A   Scattered Clouds
4:50 AM 55.4 °F 53.6 °F 94% 29.89 in - SE 3.5 mph - N/A   Clear
5:20 AM 53.6 °F 51.8 °F 94% 29.89 in - SSE 5.8 mph - N/A   Clear
5:50 AM 53.6 °F 51.8 °F 94% 29.89 in - Variable 3.5 mph - N/A   Clear
6:20 AM 57.2 °F 53.6 °F 88% 29.89 in - SE 4.6 mph - N/A   Clear
6:50 AM 59.0 °F 55.4 °F 88% 29.89 in - SSE 4.6 mph - N/A   Clear
7:20 AM 60.8 °F 55.4 °F 82% 29.89 in - SSW 6.9 mph - N/A   Clear
7:50 AM 60.8 °F 57.2 °F 88% 29.89 in - SSW 8.1 mph - N/A   Clear
8:20 AM 62.6 °F 57.2 °F 82% 29.89 in - SSW 8.1 mph - N/A   Clear
8:50 AM 64.4 °F 57.2 °F 77% 29.89 in - SSW 8.1 mph - N/A   Clear
9:20 AM 66.2 °F 57.2 °F 73% 29.89 in - SSW 6.9 mph - N/A   Clear
9:50 AM 68.0 °F 55.4 °F 64% 29.89 in - SSW 6.9 mph - N/A   Clear
10:20 AM 68.0 °F 53.6 °F 60% 29.89 in 6.2 mi SW 8.1 mph - N/A   Partly Cloudy
10:50 AM 69.8 °F 55.4 °F 60% 29.89 in 6.2 mi SW 6.9 mph - N/A   Partly Cloudy
11:20 AM 71.6 °F 55.4 °F 57% 29.89 in 6.2 mi West 6.9 mph - N/A   Scattered Clouds
11:50 AM 71.6 °F 53.6 °F 53% 29.89 in 6.2 mi Variable 5.8 mph - N/A   Partly Cloudy
12:20 PM 71.6 °F 51.8 °F 50% 29.89 in 6.2 mi West 5.8 mph - N/A   Mostly Cloudy
12:50 PM 73.4 °F 50.0 °F 44% 29.89 in 6.2 mi SW 5.8 mph - N/A   Scattered Clouds
1:20 PM 73.4 °F 50.0 °F 44% 29.89 in 6.2 mi Variable 5.8 mph - N/A   Scattered Clouds
1:50 PM 73.4 °F 51.8 °F 47% 29.89 in 6.2 mi South 5.8 mph - N/A   Partly Cloudy
2:20 PM 71.6 °F 50.0 °F 46% 29.89 in - WSW 6.9 mph - N/A   Clear
2:50 PM 73.4 °F 46.4 °F 38% 29.89 in - SW 8.1 mph - N/A   Clear
3:20 PM 73.4 °F 48.2 °F 41% 29.86 in - WSW 6.9 mph - N/A   Clear
3:50 PM 73.4 °F 48.2 °F 41% 29.86 in - West 4.6 mph - N/A   Clear
4:20 PM 73.4 °F 50.0 °F 44% 29.86 in 6.2 mi NW 4.6 mph - N/A   Unknown
4:50 PM 73.4 °F 48.2 °F 41% 29.86 in - Variable 2.3 mph - N/A   Clear
5:20 PM 75.2 °F 48.2 °F 38% 29.86 in - NW 4.6 mph - N/A   Clear
5:50 PM 73.4 °F 48.2 °F 41% 29.86 in - WSW 4.6 mph - N/A   Clear
6:20 PM 75.2 °F 48.2 °F 38% 29.86 in - Variable 3.5 mph - N/A   Clear
6:50 PM 75.2 °F 48.2 °F 38% 29.86 in - Variable 3.5 mph - N/A   Clear
7:20 PM 75.2 °F 48.2 °F 38% 29.86 in - Variable 3.5 mph - N/A   Clear
7:50 PM 73.4 °F 50.0 °F 44% 29.86 in - West 3.5 mph - N/A   Clear
8:20 PM 69.8 °F 53.6 °F 56% 29.86 in - West 4.6 mph - N/A   Clear
8:50 PM 69.8 °F 53.6 °F 56% 29.86 in - NW 4.6 mph - N/A   Clear
9:20 PM 68.0 °F 53.6 °F 60% 29.86 in - NNW 6.9 mph 19.6 mph N/A   Clear
9:50 PM 68.0 °F 53.6 °F 60% 29.86 in - North 4.6 mph - N/A   Clear
10:20 PM 66.2 °F 55.4 °F 68% 29.86 in - North 4.6 mph - N/A   Clear
10:50 PM 66.2 °F 55.4 °F 68% 29.86 in 6.2 mi NNE 5.8 mph - N/A   Unknown
11:20 PM 66.2 °F 55.4 °F 68% 29.86 in - NNE 4.6 mph - N/A   Clear
11:50 PM 60.8 °F 55.4 °F 82% 29.86 in - Calm Calm - N/A   Clear